Grey Islet, British Columbia

11:41 AM PDT on May 25, 2017 (GMT -0700)
Grey Islet

Weather History for CWEK - November, 2012

Change the Weather History Date:

Tuesday, November 13, 2012

  Actual Average Record
Temperature  
Mean Temperature 41 °F -  
Max Temperature 43 °F - - ()
Min Temperature 39 °F - - ()
Degree Days  
Heating Degree Days 24    
Moisture  
Dew Point 40 °F    
Average Humidity 96    
Maximum Humidity 99    
Minimum Humidity 86    
Precipitation  
Precipitation 0.02 in - - ()
Sea Level Pressure  
Sea Level Pressure 30.00 in    
Wind  
Wind Speed 15 mph ()    
Max Wind Speed 23 mph    
Max Gust Speed -    
T = Trace of Precipitation, MM = Missing Value Source: Averaged Metar Reports

Daily Weather History Graph

Daily Weather History Graph

Search for Another Location

Airport or City:

Trip Planner

Search our weather history database for the weather conditions in past years. The results will help you decide how hot, cold, wet, or windy it might be!

Date:

Astronomy

Nov. 13, 2012 Rise Set
Actual Time 8:10 AM PST 4:43 PM PST
Civil Twilight 7:30 AM PST 5:23 PM PST
Nautical Twilight 6:46 AM PST 6:07 PM PST
Astronomical Twilight 6:04 AM PST 6:49 PM PST
Moon 8:00 AM PST (11/13) 4:36 PM PST (11/13)
Length of Visible Light 9h 53m
Length of Day
8h 32m
Waning Crescent, 0% of the Moon is Illuminated
Nov 13
Waning Crescent
Nov 13
New
Nov 20
First Quarter
Nov 28
Full
Dec 6
Last Quarter

Hourly Weather History & Observations

Time (PST) Temp. Windchill Dew Point Humidity Pressure Visibility Wind Dir Wind Speed Gust Speed Precip Events Conditions
12:00 AM 40.5 °F 30.4 °F 38.8 °F 94% 29.94 in - NE 23.0 mph - N/A   Unknown
1:00 AM 39.9 °F 29.7 °F 38.8 °F 96% 29.95 in - NE 23.0 mph - N/A   Unknown
2:00 AM 39.9 °F 30.0 °F 39.0 °F 97% 29.95 in - NE 21.9 mph - N/A   Unknown
3:00 AM 39.7 °F 29.7 °F 39.0 °F 97% 29.96 in - NE 21.9 mph - N/A   Unknown
4:00 AM 40 °F - 39 °F 97% 29.96 in - NE 19.6 mph - -  
4:00 AM 39.9 °F 30.5 °F 39.4 °F 98% 29.96 in - NE 19.6 mph - 0.02 in   Unknown
5:00 AM 39.9 °F 30.5 °F 39.4 °F 98% 29.97 in - NE 19.6 mph - N/A   Unknown
6:00 AM 39.7 °F 30.3 °F 39.4 °F 99% 29.97 in - NE 19.6 mph - 0.01 in   Unknown
7:00 AM 40.1 °F 31.0 °F 39.6 °F 98% 29.97 in - NE 18.4 mph - N/A   Unknown
8:00 AM 39.6 °F 30.3 °F 39.0 °F 98% 29.99 in - NE 18.4 mph - N/A   Unknown
9:00 AM 39.7 °F 31.5 °F 39.2 °F 98% 30.00 in - NE 15.0 mph - N/A   Unknown
10:00 AM 40 °F - 40 °F 98% 30.01 in - NE 15.0 mph - -  
10:00 AM 40.1 °F 32.0 °F 39.6 °F 98% 30.01 in - NE 15.0 mph - 0.01 in   Unknown
11:00 AM 39.9 °F 32.9 °F 39.4 °F 98% 30.03 in - NE 11.5 mph - N/A   Unknown
12:00 PM 40.6 °F 34.8 °F 40.1 °F 98% 30.04 in - NE 9.2 mph - N/A   Unknown
1:00 PM 41.7 °F 38.0 °F 41.0 °F 97% 30.03 in - NNE 5.8 mph - N/A   Unknown
2:00 PM 41.9 °F 40.0 °F 40.8 °F 96% 30.03 in - North 3.5 mph - N/A   Unknown
3:00 PM 43.5 °F 41.9 °F 41.5 °F 93% 30.03 in - NE 3.5 mph - N/A   Unknown
4:00 PM 42 °F - 40 °F 91% 30.03 in - East 4.6 mph - -  
4:00 PM 41.7 °F 38.8 °F 40.3 °F 95% 30.03 in - East 4.6 mph - N/A   Unknown
5:00 PM 41.7 °F 39.8 °F 40.1 °F 94% 30.03 in - SE 3.5 mph - N/A   Unknown
6:00 PM 42.6 °F 39.0 °F 39.9 °F 90% 30.03 in - South 5.8 mph - N/A   Unknown
7:00 PM 43.0 °F 37.7 °F 39.2 °F 86% 30.03 in - South 9.2 mph - N/A   Unknown
8:00 PM 43.2 °F 37.0 °F 40.8 °F 91% 30.03 in - SSE 11.5 mph - N/A   Unknown
9:00 PM 43.7 °F 36.6 °F 42.1 °F 94% 30.03 in - South 15.0 mph - N/A   Unknown
10:00 PM 43 °F - 42 °F 96% 30.04 in - South 17.3 mph - -  
10:00 PM 43.3 °F 35.5 °F 42.3 °F 96% 30.04 in - South 17.3 mph - N/A   Unknown
11:00 PM 43.5 °F 34.5 °F 42.6 °F 97% 30.04 in - South 23.0 mph - 0.02 in   Unknown